Location: Summit Observatory
(39.5293°N, 75.7290°W)
Time: 09:42:01
(UTC-04:00)

Amateur Radio Satellites - All Passes

Search period start: 18 September 2014 09:12
Search period end: 19 September 2014 09:12
Location: Summit Observatory, 39.5293°N, 75.7290°W

Satellite Date Start Highest point End Downlink Frequencies (MHz)
Time Altitude Azimuth
ISS 18 Sep 09:45:10 09:48:24 47° 33° (NNE) 09:51:38 145.800 FM
Oscar 11 18 Sep 10:07:48 10:11:28 26° 96° (E) 10:15:06 145.825 FM, Beacon 2401.500 USB
UKube-1 18 Sep 10:22:28 10:26:45 52° 101° (E) 10:30:59 145.840 MHz, 145.915 MHz
UOSAT-12 18 Sep 10:47:54 10:51:55 28° 247° (WSW) 10:55:52 437.025 FM, 437.400 FM
MaSat-1 18 Sep 10:50:16 10:52:38 13° 311° (NW) 10:54:58 437.345 MHz
HO-68 18 Sep 10:55:47 11:02:44 55° 292° (WNW) 11:09:40 435.675 MHz FM
RS-15 18 Sep 11:13:59 11:22:09 23° 23° (NNE) 11:30:28 29.354 - 29.394 USB, Beacon 29.352 USB
ISS 18 Sep 11:22:32 11:24:52 18° 229° (SW) 11:27:12 145.800 FM
FUNcube-1 18 Sep 11:28:53 11:33:32 87° 102° (ESE) 11:38:07 145.950 - 145.970 MHz USB
Oscar 11 18 Sep 11:43:58 11:47:34 26° 291° (WNW) 11:51:08 145.825 FM, Beacon 2401.500 USB
UKube-1 18 Sep 12:00:10 12:02:29 14° 296° (WNW) 12:04:48 145.840 MHz, 145.915 MHz
Sapphire 18 Sep 12:09:19 12:14:01 31° 109° (ESE) 12:18:43 437.095 MHz 1200 baud AX-25 AFSK
Oscar 19 18 Sep 12:12:31 12:13:37 11° 59° (ENE) 12:14:43 437.125 CW, 437.150 USB
PCSat 18 Sep 12:35:46 12:41:03 59° 114° (ESE) 12:46:23 145.825 MHz
Oscar 16 18 Sep 12:47:35 12:51:42 25° 66° (ENE) 12:55:50 437.025 USB, Beacon 2401.1428
AO-Echo 18 Sep 13:13:12 13:16:21 18° 65° (ENE) 13:19:28 ?
RS-15 18 Sep 13:26:25 13:37:25 62° 52° (NE) 13:48:49 29.354 - 29.394 USB, Beacon 29.352 USB
ITAMSAT 1 18 Sep 13:28:04 13:32:09 24° 65° (ENE) 13:36:16 435.822 SSB
Uribyol 2 18 Sep 13:32:19 13:36:40 28° 67° (ENE) 13:41:02 436.500 FM
JAS-1B 18 Sep 13:46:42 13:55:09 55° 71° (ENE) 14:02:16 435.800 - 435.900 CW/SSB
Oscar 19 18 Sep 13:46:55 13:52:06 84° 75° (ENE) 13:57:20 437.125 CW, 437.150 USB
TMSAT-1 18 Sep 13:47:53 13:50:15 13° 60° (ENE) 13:52:37 436.925 FM
Sapphire 18 Sep 13:52:22 13:57:19 36° 306° (NW) 14:02:19 437.095 MHz 1200 baud AX-25 AFSK
AO-27 18 Sep 14:01:37 14:06:35 51° 71° (ENE) 14:11:36 436.795 MHz FM
PCSat 18 Sep 14:20:44 14:24:51 22° 312° (NW) 14:29:00 145.825 MHz
Oscar 16 18 Sep 14:25:57 14:30:48 40° 262° (W) 14:35:42 437.025 USB, Beacon 2401.1428
Oscar 10/S400 18 Sep 14:46:07 15:02:33 24° 148° (SSE) 15:17:42 145.825 - 145.975 CW/USB, Beacon 145.810 USB
Gurwin Techsat 1B 18 Sep 14:46:18 14:51:31 62° 73° (ENE) 14:56:46 435.225 FM
AO-Echo 18 Sep 14:50:12 14:54:46 46° 260° (W) 14:59:19 ?
ITAMSAT 1 18 Sep 15:06:35 15:11:24 40° 262° (W) 15:16:15 435.822 SSB
Uribyol 2 18 Sep 15:11:22 15:16:00 34° 263° (W) 15:20:42 436.500 FM
TMSAT-1 18 Sep 15:24:10 15:29:27 81° 257° (WSW) 15:34:46 436.925 FM
Oscar 19 18 Sep 15:31:10 15:32:03 10° 271° (W) 15:32:57 437.125 CW, 437.150 USB
AO-7 18 Sep 15:35:58 15:43:43 46° 63° (ENE) 15:51:28 29.400 - 29.500 MHz
JAS-1B 18 Sep 15:38:14 15:45:47 31° 263° (W) 15:52:25 435.800 - 435.900 CW/SSB
RS-15 18 Sep 15:39:22 15:49:15 39° 253° (WSW) 15:59:32 29.354 - 29.394 USB, Beacon 29.352 USB
AO-27 18 Sep 15:42:52 15:46:22 18° 267° (W) 15:49:54 436.795 MHz FM
Uosat F 18 Sep 15:58:53 16:03:28 38° 69° (ENE) 16:08:05 435.120 FM
Gurwin Techsat 1B 18 Sep 16:28:49 16:31:53 16° 269° (W) 16:34:59 435.225 FM
OPAL 18 Sep 16:57:11 17:01:05 21° 96° (E) 17:04:55 ?
AO-7 18 Sep 17:28:53 17:36:31 40° 261° (W) 17:44:12 29.400 - 29.500 MHz
MaSat-1 18 Sep 17:29:28 17:31:30 14° 49° (NE) 17:33:24 437.345 MHz
Uosat F 18 Sep 17:38:25 17:42:21 23° 265° (W) 17:46:17 435.120 FM
JAS-2 18 Sep 17:45:52 17:51:02 54° 72° (ENE) 17:56:04 435.800 - 435.900 CW/SSB, 435.910 FM
Saudisat 1A 18 Sep 17:55:41 18:00:05 89° 301° (WNW) 18:04:31 436.775 MHz
Hamsat 18 Sep 17:56:10 18:00:27 60° 75° (ENE) 18:04:45 145.90 MHz
KITSAT 1 18 Sep 18:26:41 18:31:59 19° 102° (ESE) 18:37:16 435.175 FM
OPAL 18 Sep 18:35:14 18:40:08 44° 292° (WNW) 18:44:57 ?
SO-67 18 Sep 18:42:30 18:45:12 22° 71° (ENE) 18:47:55 435.3500 MHz FM
MaSat-1 18 Sep 19:05:04 19:08:37 40° 251° (WSW) 19:11:41 437.345 MHz
STRAND 1 18 Sep 19:14:14 19:18:47 31° 97° (E) 19:23:19 ?
JAS-2 18 Sep 19:33:24 19:36:31 16° 268° (W) 19:39:36 435.800 - 435.900 CW/SSB, 435.910 FM
Hamsat 18 Sep 19:35:25 19:36:46 11° 270° (W) 19:38:07 145.90 MHz
HO-68 18 Sep 19:37:57 19:42:48 20° 57° (ENE) 19:47:39 435.675 MHz FM
Saudisat 1A 18 Sep 19:38:22 19:40:18 13° 320° (NW) 19:42:16 436.775 MHz
SO-67 18 Sep 20:15:40 20:18:10 19° 266° (W) 20:20:40 435.3500 MHz FM
KITSAT 1 18 Sep 20:18:16 20:26:22 84° 300° (WNW) 20:34:30 435.175 FM
STRAND 1 18 Sep 20:53:28 20:57:53 30° 293° (WNW) 21:02:18 ?
Sapphire 18 Sep 20:57:59 21:02:18 23° 49° (NE) 21:06:36 437.095 MHz 1200 baud AX-25 AFSK
Oscar 11 18 Sep 21:02:31 21:05:40 20° 67° (ENE) 21:08:50 145.825 FM, Beacon 2401.500 USB
UKube-1 18 Sep 21:17:07 21:21:10 40° 71° (ENE) 21:25:14 145.840 MHz, 145.915 MHz
HO-68 18 Sep 21:22:33 21:29:41 80° 255° (WSW) 21:36:52 435.675 MHz FM
PCSat 18 Sep 21:24:42 21:29:47 39° 55° (NE) 21:34:50 145.825 MHz
SO-50 18 Sep 21:37:33 21:39:06 12° 107° (ESE) 21:40:40 436.795 FM
KITSAT 1 18 Sep 22:16:57 22:23:00 23° 322° (NW) 22:29:06 435.175 FM
FUNcube-1 18 Sep 22:24:11 22:28:29 61° 74° (ENE) 22:32:56 145.950 - 145.970 MHz USB
Oscar 11 18 Sep 22:37:35 22:41:35 36° 262° (W) 22:45:38 145.825 FM, Beacon 2401.500 USB
Sapphire 18 Sep 22:40:46 22:46:02 53° 247° (WSW) 22:51:17 437.095 MHz 1200 baud AX-25 AFSK
UKube-1 18 Sep 22:54:45 22:57:32 17° 267° (W) 23:00:19 145.840 MHz, 145.915 MHz
PCSat 18 Sep 23:08:26 23:13:01 28° 252° (WSW) 23:17:34 145.825 MHz
SO-50 18 Sep 23:14:33 23:19:00 69° 303° (WNW) 23:23:35 436.795 FM
HO-68 18 Sep 23:15:46 23:18:22 12° 272° (W) 23:20:59 435.675 MHz FM
UOSAT-12 18 Sep 23:21:08 23:22:26 11° 106° (ESE) 23:23:45 437.025 FM, 437.400 FM
FUNcube-1 19 Sep 00:03:52 00:05:18 11° 271° (W) 00:06:45 145.950 - 145.970 MHz USB
UOSAT-12 19 Sep 00:57:17 01:01:53 77° 303° (WNW) 01:06:37 437.025 FM, 437.400 FM
SO-50 19 Sep 00:59:14 01:00:28 11° 323° (NW) 01:01:42 436.795 FM
Oscar 19 19 Sep 01:59:55 02:04:32 32° 97° (E) 02:09:05 437.125 CW, 437.150 USB
AO-27 19 Sep 02:16:26 02:20:10 20° 93° (E) 02:23:52 436.795 MHz FM
KITSAT 1 19 Sep 02:18:55 02:22:23 13° 24° (NNE) 02:25:50 435.175 FM
Saudisat 1A 19 Sep 02:23:17 02:27:38 55° 55° (NE) 02:31:57 436.775 MHz
ISS 19 Sep 02:27:17 02:30:01 24° 133° (SE) 02:32:46 145.800 FM
Oscar 16 19 Sep 02:38:11 02:43:24 78° 103° (ESE) 02:48:33 437.025 USB, Beacon 2401.1428
UOSAT-12 19 Sep 02:40:54 02:42:52 12° 322° (NW) 02:44:50 437.025 FM, 437.400 FM
PANSAT 19 Sep 02:44:52 02:46:44 13° 170° (S) 02:48:35 not established
AO-Echo 19 Sep 02:57:38 03:02:25 57° 101° (E) 03:07:19 ?
Gurwin Techsat 1B 19 Sep 03:04:00 03:08:26 27° 95° (E) 03:12:51 435.225 FM
ITAMSAT 1 19 Sep 03:19:53 03:25:08 79° 103° (ESE) 03:30:21 435.822 SSB
JAS-1B 19 Sep 03:23:49 03:29:37 87° 104° (ESE) 03:35:21 435.800 - 435.900 CW/SSB
Uribyol 2 19 Sep 03:24:18 03:29:34 89° 285° (WNW) 03:34:47 436.500 FM
Oscar 19 19 Sep 03:39:20 03:43:46 30° 293° (WNW) 03:48:10 437.125 CW, 437.150 USB
Oscar 10/S400 19 Sep 03:40:31 04:47:01 24° 247° (WSW) 07:28:22 145.825 - 145.975 CW/USB, Beacon 145.810 USB
TMSAT-1 19 Sep 03:41:06 03:46:10 43° 99° (E) 03:51:11 436.925 FM
AO-7 19 Sep 03:41:26 03:44:45 13° 88° (E) 03:48:03 29.400 - 29.500 MHz
RS-15 19 Sep 03:49:34 03:59:32 41° 108° (ESE) 04:09:20 29.354 - 29.394 USB, Beacon 29.352 USB
AO-27 19 Sep 03:54:54 03:59:54 48° 289° (WNW) 04:04:54 436.795 MHz FM
ISS 19 Sep 04:03:29 04:06:37 37° 329° (NNW) 04:09:45 145.800 FM
Saudisat 1A 19 Sep 04:04:19 04:06:45 15° 251° (WSW) 04:09:11 436.775 MHz
Uosat F 19 Sep 04:09:26 04:11:25 12° 90° (E) 04:13:23 435.120 FM
OPAL 19 Sep 04:10:46 04:15:27 36° 66° (ENE) 04:20:10 ?
KITSAT 1 19 Sep 04:12:45 04:20:21 42° 50° (NE) 04:27:53 435.175 FM
Oscar 16 19 Sep 04:19:42 04:22:03 13° 300° (WNW) 04:24:24 437.025 USB, Beacon 2401.1428
PANSAT 19 Sep 04:23:54 04:26:12 15° 183° (S) 04:28:31 not established
AO-Echo 19 Sep 04:37:52 04:40:45 16° 296° (WNW) 04:43:40 ?
Gurwin Techsat 1B 19 Sep 04:43:36 04:48:26 37° 291° (WNW) 04:53:16 435.225 FM
ITAMSAT 1 19 Sep 05:01:31 05:03:56 13° 300° (WNW) 05:06:20 435.822 SSB
Uribyol 2 19 Sep 05:06:38 05:08:14 11° 301° (WNW) 05:09:50 436.500 FM
JAS-1B 19 Sep 05:17:26 05:19:24 12° 304° (NW) 05:21:20 435.800 - 435.900 CW/SSB
TMSAT-1 19 Sep 05:21:40 05:25:47 23° 295° (WNW) 05:29:53 436.925 FM
AO-7 19 Sep 05:30:27 05:38:46 76° 106° (ESE) 05:47:02 29.400 - 29.500 MHz
ISS 19 Sep 05:42:35 05:44:04 12° 348° (NNW) 05:45:34 145.800 FM
Hamsat 19 Sep 05:45:20 05:46:37 11° 90° (E) 05:47:52 145.90 MHz
Uosat F 19 Sep 05:45:40 05:50:41 71° 286° (WNW) 05:55:40 435.120 FM
OPAL 19 Sep 05:49:58 05:54:20 27° 262° (W) 05:58:45 ?
RS-15 19 Sep 06:00:40 06:11:27 57° 309° (NW) 06:22:12 29.354 - 29.394 USB, Beacon 29.352 USB
SO-50 19 Sep 06:08:02 06:10:23 13° 39° (NE) 06:12:44 436.795 FM
KITSAT 1 19 Sep 06:08:13 06:15:47 46° 250° (WSW) 06:23:19 435.175 FM
STRAND 1 19 Sep 06:29:18 06:34:02 41° 70° (ENE) 06:38:48 ?
JAS-2 19 Sep 06:38:35 06:44:32 57° 101° (E) 06:51:15 435.800 - 435.900 CW/SSB, 435.910 FM
Hamsat 19 Sep 07:18:45 07:22:56 56° 286° (WNW) 07:27:03 145.90 MHz
ISS 19 Sep 07:20:45 07:21:58 12° 9° (N) 07:23:11 145.800 FM
AO-7 19 Sep 07:24:26 07:30:44 25° 305° (NW) 07:37:03 29.400 - 29.500 MHz
SO-67 19 Sep 07:39:19 07:42:22 28° 97° (E) 07:45:23 435.3500 MHz FM
SO-50 19 Sep 07:46:51 07:51:41 81° 58° (ENE) 07:56:34 436.795 FM
UOSAT-12 19 Sep 07:49:49 07:51:31 12° 37° (NE) 07:53:13 437.025 FM, 437.400 FM
STRAND 1 19 Sep 08:09:29 08:13:22 22° 266° (W) 08:17:16 ?
RS-15 19 Sep 08:19:05 08:26:55 21° 339° (NNW) 08:34:49 29.354 - 29.394 USB, Beacon 29.352 USB
JAS-2 19 Sep 08:24:43 08:29:18 23° 295° (WNW) 08:34:17 435.800 - 435.900 CW/SSB, 435.910 FM
MaSat-1 19 Sep 08:48:18 08:53:18 80° 113° (ESE) 08:58:17 437.345 MHz
HO-68 19 Sep 08:52:35 08:57:39 20° 92° (E) 09:02:42 435.675 MHz FM
ISS 19 Sep 08:56:32 08:59:32 30° 29° (NNE) 09:02:30 145.800 FM
